Chugiak, AK

1:12 PM AKST on December 06, 2016 (GMT -0900)
Birchwood

Weather History for PABV - November, 2013

Change the Weather History Date:

Sunday, November 24, 2013

  Actual Average Record
Temperature  
Mean Temperature 24 °F -  
Max Temperature 30 °F 23 °F 51 °F (2015)
Min Temperature 19 °F 13 °F -8 °F (1990)
Degree Days  
Heating Degree Days 40    
Moisture  
Dew Point 24 °F    
Average Humidity 91    
Maximum Humidity 100    
Minimum Humidity 74    
Precipitation  
Precipitation 0.00 in - - ()
Sea Level Pressure  
Sea Level Pressure 30.03 in    
Wind  
Wind Speed 4 mph (SE)    
Max Wind Speed 10 mph    
Max Gust Speed -    
Visibility 10 miles    
Events      
Averages and records for this station are not official NWS values.
T = Trace of Precipitation, MM = Missing Value Source: NWS Daily Summary

Daily Weather History Graph

Daily Weather History Graph

Search for Another Location

Airport or City:

Trip Planner

Search our weather history database for the weather conditions in past years. The results will help you decide how hot, cold, wet, or windy it might be!

Date:

Astronomy

Nov. 24, 2013 Rise Set
Actual Time 9:30 AM AKST 3:58 PM AKST
Civil Twilight 8:34 AM AKST 4:54 PM AKST
Nautical Twilight 7:37 AM AKST 5:51 PM AKST
Astronomical Twilight 6:45 AM AKST 6:43 PM AKST
Moon 11:39 PM AKST (11/24) 1:24 PM AKST (11/24)
Length of Visible Light 8h 20m
Length of Day
6h 28m
Waning Gibbous, 59% of the Moon is Illuminated
Nov 24
Waning Gibbous
Nov 25
Last Quarter
Dec 2
New
Dec 9
First Quarter
Dec 17
Full

Hourly Weather History & Observations

Time (AKST) Temp. Windchill Dew Point Humidity Pressure Visibility Wind Dir Wind Speed Gust Speed Precip Events Conditions
12:16 AM 24.8 °F 15.3 °F 19.4 °F 80% 29.99 in 10.0 mi NE 9.2 mph - N/A   Mostly Cloudy
12:36 AM 26.6 °F 17.5 °F 21.2 °F 80% 29.99 in 10.0 mi NE 9.2 mph - N/A   Overcast
12:56 AM 26.6 °F 17.5 °F 21.2 °F 80% 30.00 in 10.0 mi NE 9.2 mph - N/A   Mostly Cloudy
1:16 AM 26.6 °F 17.5 °F 19.4 °F 74% 30.00 in 10.0 mi NE 9.2 mph - N/A   Mostly Cloudy
1:36 AM 26.6 °F - 21.2 °F 80% 30.00 in 10.0 mi Calm Calm - N/A   Overcast
1:56 AM 26.6 °F 21.2 °F 21.2 °F 80% 30.00 in 10.0 mi East 4.6 mph - N/A   Overcast
2:16 AM 26.6 °F 16.8 °F 21.2 °F 80% 30.00 in 10.0 mi NNE 10.4 mph - N/A   Overcast
2:36 AM 26.6 °F 16.8 °F 21.2 °F 80% 30.00 in 10.0 mi NE 10.4 mph - N/A   Overcast
2:56 AM 26.6 °F 21.2 °F 21.2 °F 80% 30.01 in 10.0 mi ENE 4.6 mph - N/A   Overcast
3:16 AM 26.6 °F - 21.2 °F 80% 30.01 in 10.0 mi Calm Calm - N/A   Overcast
3:36 AM 26.6 °F - 21.2 °F 80% 30.02 in 10.0 mi Calm Calm - N/A   Overcast
3:56 AM 26.6 °F - 21.2 °F 80% 30.02 in 10.0 mi Calm Calm - N/A   Overcast
4:16 AM 28.4 °F 24.6 °F 23.0 °F 80% 30.02 in 10.0 mi North 3.5 mph - N/A   Overcast
4:36 AM 28.4 °F 23.3 °F 23.0 °F 80% 30.02 in 10.0 mi NE 4.6 mph - N/A   Overcast
4:56 AM 28.4 °F - 24.8 °F 86% 30.03 in 10.0 mi Calm Calm - N/A   Overcast
5:16 AM 28.4 °F - 24.8 °F 86% 30.03 in 10.0 mi Calm Calm - N/A   Overcast
5:36 AM 28.4 °F - 24.8 °F 86% 30.02 in 10.0 mi Calm Calm - N/A   Overcast
5:56 AM 28.4 °F - 24.8 °F 86% 30.03 in 10.0 mi Calm Calm - N/A   Overcast
6:16 AM 28.4 °F 21.2 °F 24.8 °F 86% 30.02 in 10.0 mi NNE 6.9 mph - N/A   Overcast
6:36 AM 28.4 °F 22.2 °F 24.8 °F 86% 30.02 in 10.0 mi NE 5.8 mph - N/A   Overcast
6:56 AM 28.4 °F 22.2 °F 24.8 °F 86% 30.02 in 10.0 mi NE 5.8 mph - N/A   Overcast
7:16 AM 28.4 °F 24.6 °F 24.8 °F 86% 30.01 in 10.0 mi NE 3.5 mph - N/A   Overcast
7:36 AM 28.4 °F 21.2 °F 24.8 °F 86% 30.02 in 10.0 mi ENE 6.9 mph - N/A   Overcast
7:56 AM 28.4 °F 24.6 °F 24.8 °F 86% 30.02 in 10.0 mi ENE 3.5 mph - N/A   Overcast
8:16 AM 30.2 °F 23.4 °F 24.8 °F 80% 30.02 in 10.0 mi ENE 6.9 mph - N/A   Mostly Cloudy
8:36 AM 30.2 °F 26.7 °F 24.8 °F 80% 30.01 in 10.0 mi ENE 3.5 mph - N/A   Mostly Cloudy
8:56 AM 30.2 °F - 24.8 °F 80% 30.02 in 10.0 mi Calm Calm - N/A   Overcast
9:16 AM 30.2 °F - 26.6 °F 86% 30.02 in 10.0 mi Calm Calm - N/A   Overcast
9:36 AM 28.4 °F - 26.6 °F 93% 30.03 in 10.0 mi Calm Calm - N/A   Overcast
9:56 AM 28.4 °F - 26.6 °F 93% 30.04 in 10.0 mi Calm Calm - N/A   Overcast
10:16 AM 28.4 °F - 26.6 °F 93% 30.05 in 10.0 mi Calm Calm - N/A   Overcast
10:36 AM 28.4 °F 24.6 °F 26.6 °F 93% 30.05 in 10.0 mi SSE 3.5 mph - N/A   Overcast
10:56 AM 28.4 °F - 26.6 °F 93% 30.05 in 10.0 mi Calm Calm - N/A   Overcast
11:16 AM 28.4 °F - 26.6 °F 93% 30.05 in 10.0 mi Calm Calm - N/A   Overcast
11:36 AM 28.4 °F - 26.6 °F 93% 30.06 in 10.0 mi Calm Calm - N/A   Overcast
11:56 AM 28.4 °F - 26.6 °F 93% 30.06 in 10.0 mi Calm Calm - N/A   Overcast
12:16 PM 28.4 °F - 28.4 °F 100% 30.06 in 10.0 mi Calm Calm - N/A   Overcast
12:36 PM 30.2 °F - 28.4 °F 93% 30.05 in 9.0 mi Calm Calm - N/A   Overcast
12:56 PM 30.2 °F - 28.4 °F 93% 30.05 in 10.0 mi Calm Calm - N/A   Overcast
1:16 PM 30.2 °F 26.7 °F 28.4 °F 93% 30.05 in 10.0 mi WSW 3.5 mph - N/A   Overcast
1:36 PM 30.2 °F - 28.4 °F 93% 30.06 in 10.0 mi Calm Calm - N/A   Overcast
1:56 PM 30.2 °F - 28.4 °F 93% 30.06 in 10.0 mi Calm Calm - N/A   Overcast
2:16 PM 30.2 °F 26.7 °F 28.4 °F 93% 30.05 in 10.0 mi SSW 3.5 mph - N/A   Overcast
2:36 PM 28.4 °F - 28.4 °F 100% 30.05 in 10.0 mi Calm Calm - N/A   Overcast
2:56 PM 28.4 °F - 28.4 °F 100% 30.05 in 10.0 mi Calm Calm - N/A   Overcast
3:16 PM 28.4 °F 23.3 °F 28.4 °F 100% 30.05 in 10.0 mi South 4.6 mph - N/A   Overcast
3:36 PM 28.4 °F 24.6 °F 28.4 °F 100% 30.05 in 10.0 mi South 3.5 mph - N/A   Overcast
3:56 PM 28.4 °F 24.6 °F 28.4 °F 100% 30.05 in 10.0 mi SSW 3.5 mph - N/A   Overcast
4:16 PM 28.4 °F 23.3 °F 28.4 °F 100% 30.05 in 10.0 mi SW 4.6 mph - N/A   Overcast
4:36 PM 28.4 °F 24.6 °F 26.6 °F 93% 30.05 in 10.0 mi SW 3.5 mph - N/A   Overcast
4:56 PM 28.4 °F 23.3 °F 26.6 °F 93% 30.05 in 10.0 mi South 4.6 mph - N/A   Mostly Cloudy
5:16 PM 28.4 °F 24.6 °F 26.6 °F 93% 30.05 in 10.0 mi SSW 3.5 mph - N/A   Clear
5:36 PM 26.6 °F 22.6 °F 26.6 °F 100% 30.05 in 10.0 mi SSW 3.5 mph - N/A   Clear
5:56 PM 26.6 °F 21.2 °F 24.8 °F 93% 30.05 in 10.0 mi SW 4.6 mph - N/A   Partly Cloudy
6:16 PM 26.6 °F - 24.8 °F 93% 30.04 in 10.0 mi Calm Calm - N/A   Mostly Cloudy
6:36 PM 26.6 °F - 26.6 °F 100% 30.04 in 10.0 mi Calm Calm - N/A   Partly Cloudy
6:56 PM 26.6 °F - 26.6 °F 100% 30.04 in 10.0 mi Calm Calm - N/A   Clear
7:16 PM 26.6 °F - 26.6 °F 100% 30.04 in 10.0 mi Calm Calm - N/A   Clear
7:36 PM 26.6 °F - 24.8 °F 93% 30.04 in 10.0 mi Calm Calm - N/A   Clear
7:56 PM 24.8 °F - 24.8 °F 100% 30.04 in 10.0 mi Calm Calm - N/A   Clear
8:16 PM 24.8 °F 20.5 °F 24.8 °F 100% 30.04 in 10.0 mi SSW 3.5 mph - N/A   Clear
8:36 PM 24.8 °F - 24.8 °F 100% 30.03 in 10.0 mi Calm Calm - N/A   Clear
8:56 PM 24.8 °F - 24.8 °F 100% 30.03 in 10.0 mi Calm Calm - N/A   Clear
9:16 PM 24.8 °F 19.1 °F 23.0 °F 93% 30.03 in 10.0 mi South 4.6 mph - N/A   Clear
9:36 PM 23.0 °F 18.4 °F 21.2 °F 93% 30.04 in 10.0 mi South 3.5 mph - N/A   Clear
9:56 PM 21.2 °F 14.9 °F 19.4 °F 93% 30.04 in 10.0 mi SSW 4.6 mph - N/A   Clear
10:16 PM 19.4 °F 11.5 °F 17.6 °F 93% 30.04 in 10.0 mi SW 5.8 mph - N/A   Clear
10:36 PM 19.4 °F 14.3 °F 17.6 °F 93% 30.04 in 10.0 mi SE 3.5 mph - N/A   Clear
10:56 PM 21.2 °F - 21.2 °F 100% 30.03 in 10.0 mi Calm Calm - N/A   Clear
11:16 PM 19.4 °F 14.3 °F 19.4 °F 100% 30.03 in 10.0 mi ESE 3.5 mph - N/A   Clear
11:36 PM 19.4 °F - 17.6 °F 93% 30.03 in 10.0 mi Calm Calm - N/A   Clear
11:56 PM 19.4 °F 11.5 °F 19.4 °F 100% 30.02 in 10.0 mi SSE 5.8 mph - N/A   Clear